Location: Newark
(49.8969°N, 3.3422°E)
Time: 18:52:59
(UTC+00:00)

Tiros 1 - Pass Details

Date: 16 May 2021
Orbit: 630 x 664 km, 48.4° (Epoch: 11 June)

Event Time Altitude Azimuth Distance (km) Brightness Sun altitude
Exits shadow 23:26:15 32° 119° (ESE) 1,128 8.1 -20.7°
Drops below altitude 10° 23:29:25 10° 86° (E) 2,073 9.8 -20.7°
Sets 23:31:52 0° 78° (ENE) 2,983 10.7 -20.7°
